HAZ8899 ZGSZ-ZSHC

Flight info

Callsign HAZ8899
Flight time 1h 30m
Altitude 31100
Route GUBLO R200 BEBEM A470 UGAGO UGAGO13
Aircraft A320/M-SDE3FGHIRWY/LB1

Departure

Time 2026-04-16 10:24
Airport Shenzhen Bao'an International Airport (ZGSZ)

Arrival

Time 2026-04-16 11:54
Airport Hangzhou Xiaoshan International Airport (ZSHC)
Time Latitude Longitude Altitude Speed Heading
2026-04-16 10:07 22.63605 113.80470 16 ft 0 kts 243°
2026-04-16 10:16 22.63612 113.80486 16 ft 2 kts 247°
2026-04-16 10:16 22.63618 113.80503 16 ft 2 kts 253°
2026-04-16 10:16 22.63622 113.80520 18 ft 2 kts 268°
2026-04-16 10:16 22.63620 113.80538 19 ft 2 kts 308°
2026-04-16 10:17 22.63610 113.80548 16 ft 1 kts 334°
2026-04-16 10:17 22.63609 113.80548 16 ft 0 kts 334°
2026-04-16 10:18 22.63642 113.80530 17 ft 12 kts 333°
2026-04-16 10:18 22.63728 113.80483 15 ft 13 kts 333°
2026-04-16 10:18 22.63806 113.80469 15 ft 10 kts 44°
2026-04-16 10:19 22.63849 113.80550 15 ft 18 kts 63°
2026-04-16 10:19 22.63912 113.80685 15 ft 16 kts 62°
2026-04-16 10:19 22.63998 113.80701 15 ft 15 kts 329°
2026-04-16 10:19 22.64125 113.80630 15 ft 24 kts 333°
2026-04-16 10:20 22.64265 113.80554 15 ft 15 kts 343°
2026-04-16 10:20 22.64339 113.80598 15 ft 12 kts 32°
2026-04-16 10:20 22.64408 113.80580 17 ft 11 kts 332°
2026-04-16 10:20 22.64511 113.80524 17 ft 22 kts 334°
2026-04-16 10:21 22.64669 113.80436 17 ft 27 kts 333°
2026-04-16 10:21 22.64841 113.80343 15 ft 28 kts 333°
2026-04-16 10:21 22.65015 113.80247 15 ft 27 kts 332°
2026-04-16 10:21 22.65141 113.80178 15 ft 14 kts 332°
2026-04-16 10:22 22.65190 113.80172 15 ft 4 kts 61°
2026-04-16 10:22 22.65218 113.80208 15 ft 13 kts 52°
2026-04-16 10:22 22.65257 113.80296 17 ft 12 kts 84°
2026-04-16 10:22 22.65212 113.80355 15 ft 11 kts 152°
2026-04-16 10:23 22.65206 113.80359 15 ft 0 kts 152°
2026-04-16 10:23 22.65089 113.80423 15 ft 54 kts 153°
2026-04-16 10:23 22.64557 113.80716 15 ft 115 kts 153°
2026-04-16 10:23 22.63689 113.81190 23 ft 162 kts 154°
2026-04-16 10:24 22.62653 113.81742 527 ft 169 kts 156°
2026-04-16 10:24 22.61606 113.82321 1108 ft 174 kts 154°
2026-04-16 10:24 22.60540 113.82925 1798 ft 174 kts 155°
2026-04-16 10:24 22.59421 113.83561 2134 ft 192 kts 154°
2026-04-16 10:25 22.58166 113.84275 2368 ft 216 kts 154°
2026-04-16 10:25 22.56773 113.85066 2872 ft 231 kts 154°
2026-04-16 10:25 22.55330 113.85888 3585 ft 239 kts 153°
2026-04-16 10:25 22.53836 113.86737 4260 ft 247 kts 154°
2026-04-16 10:26 22.52314 113.87721 4731 ft 268 kts 140°
2026-04-16 10:26 22.51228 113.89410 5296 ft 284 kts 110°
2026-04-16 10:26 22.51060 113.91536 6080 ft 289 kts 78°
2026-04-16 10:26 22.51785 113.93591 6728 ft 297 kts 64°
2026-04-16 10:27 22.52710 113.95603 7458 ft 301 kts 63°
2026-04-16 10:27 22.53667 113.97629 8204 ft 304 kts 63°
2026-04-16 10:27 22.54637 113.99673 8969 ft 307 kts 63°
2026-04-16 10:27 22.55617 114.01746 9698 ft 312 kts 63°
2026-04-16 10:28 22.56607 114.03852 10323 ft 318 kts 63°
2026-04-16 10:28 22.57642 114.06065 10521 ft 341 kts 63°
2026-04-16 10:28 22.58746 114.08439 10671 ft 365 kts 63°
2026-04-16 10:28 22.59914 114.10965 10790 ft 385 kts 63°
2026-04-16 10:29 22.61126 114.13595 11190 ft 395 kts 63°
2026-04-16 10:29 22.62360 114.16278 11743 ft 400 kts 63°
2026-04-16 10:29 22.63607 114.18988 12338 ft 404 kts 63°
2026-04-16 10:29 22.64869 114.21724 12918 ft 408 kts 63°
2026-04-16 10:30 22.66145 114.24487 13488 ft 412 kts 63°
2026-04-16 10:30 22.67434 114.27280 14016 ft 416 kts 63°
2026-04-16 10:30 22.68731 114.30095 14499 ft 420 kts 63°
2026-04-16 10:30 22.70042 114.32941 14980 ft 424 kts 63°
2026-04-16 10:31 22.71363 114.35808 15457 ft 427 kts 63°
2026-04-16 10:31 22.72606 114.38696 15902 ft 431 kts 69°
2026-04-16 10:31 22.73475 114.41805 16348 ft 434 kts 76°
2026-04-16 10:31 22.74215 114.44987 16799 ft 437 kts 76°
2026-04-16 10:32 22.74963 114.48193 17227 ft 441 kts 76°
2026-04-16 10:32 22.75718 114.51422 17647 ft 444 kts 76°
2026-04-16 10:32 22.76300 114.54718 18063 ft 447 kts 84°
2026-04-16 10:32 22.76639 114.58078 18423 ft 450 kts 84°
2026-04-16 10:33 22.76984 114.61459 18794 ft 453 kts 84°
2026-04-16 10:33 22.77333 114.64865 19164 ft 456 kts 84°
2026-04-16 10:33 22.77682 114.68289 19512 ft 459 kts 84°
2026-04-16 10:33 22.78031 114.71733 19861 ft 462 kts 84°
2026-04-16 10:34 22.78382 114.75203 20212 ft 465 kts 84°
2026-04-16 10:34 22.78742 114.78692 20561 ft 467 kts 84°
2026-04-16 10:34 22.79113 114.82199 20908 ft 470 kts 84°
2026-04-16 10:34 22.79489 114.85724 21251 ft 473 kts 84°
2026-04-16 10:35 22.79864 114.89274 21587 ft 475 kts 84°
2026-04-16 10:35 22.80238 114.92843 21924 ft 478 kts 84°
2026-04-16 10:35 22.80610 114.96431 22246 ft 481 kts 84°
2026-04-16 10:35 22.80983 115.00042 22564 ft 483 kts 84°
2026-04-16 10:36 22.81355 115.03666 22877 ft 485 kts 84°
2026-04-16 10:36 22.81730 115.07311 23177 ft 488 kts 84°
2026-04-16 10:36 22.82107 115.10978 23480 ft 490 kts 84°
2026-04-16 10:36 22.82487 115.14658 23719 ft 493 kts 84°
2026-04-16 10:37 22.82869 115.18356 23969 ft 495 kts 84°
2026-04-16 10:37 22.83252 115.22074 24225 ft 497 kts 84°
2026-04-16 10:37 22.83633 115.25803 24475 ft 499 kts 84°
2026-04-16 10:37 22.84015 115.29547 24718 ft 501 kts 84°
2026-04-16 10:38 22.84398 115.33308 24948 ft 503 kts 84°
2026-04-16 10:38 22.84781 115.37082 25188 ft 505 kts 84°
2026-04-16 10:38 22.85160 115.40819 25420 ft 507 kts 84°
2026-04-16 10:38 22.85543 115.44625 25658 ft 508 kts 84°
2026-04-16 10:39 22.85926 115.48445 25875 ft 511 kts 84°
2026-04-16 10:39 22.86311 115.52278 26089 ft 513 kts 84°
2026-04-16 10:39 22.86697 115.56130 26311 ft 515 kts 84°
2026-04-16 10:39 22.87086 115.59995 26530 ft 517 kts 84°
2026-04-16 10:40 22.87491 115.63876 26751 ft 519 kts 84°
2026-04-16 10:40 22.87907 115.67766 26981 ft 520 kts 84°
2026-04-16 10:40 22.88323 115.71656 27306 ft 519 kts 84°
2026-04-16 10:40 22.88598 115.74231 27519 ft 519 kts 84°
2026-04-16 10:41 22.89010 115.78117 27847 ft 518 kts 84°
2026-04-16 10:41 22.89417 115.81998 28150 ft 518 kts 84°
2026-04-16 10:41 22.89820 115.85880 28460 ft 518 kts 84°
2026-04-16 10:41 22.90220 115.89762 28783 ft 518 kts 84°
2026-04-16 10:42 22.90624 115.93644 29096 ft 518 kts 84°
2026-04-16 10:42 22.91028 115.97522 29418 ft 517 kts 84°
2026-04-16 10:42 22.91433 116.01392 29784 ft 516 kts 84°
2026-04-16 10:42 22.91840 116.05257 30107 ft 515 kts 84°
2026-04-16 10:43 22.92245 116.09118 30382 ft 515 kts 84°
2026-04-16 10:43 22.92647 116.12976 30656 ft 515 kts 84°
2026-04-16 10:43 22.93046 116.16833 30916 ft 515 kts 84°
2026-04-16 10:43 22.93443 116.20698 31006 ft 517 kts 84°
2026-04-16 10:44 22.94392 116.28446 31026 ft 519 kts 76°
2026-04-16 10:44 22.97091 116.35664 31028 ft 519 kts 56°
2026-04-16 10:45 23.01759 116.41629 31029 ft 520 kts 37°
2026-04-16 10:45 23.07483 116.46421 31025 ft 520 kts 34°
2026-04-16 10:46 23.13225 116.51199 31026 ft 520 kts 34°
2026-04-16 10:46 23.18968 116.55986 31025 ft 520 kts 34°
2026-04-16 10:47 23.24702 116.60777 31025 ft 520 kts 34°
2026-04-16 10:47 23.30430 116.65569 31010 ft 519 kts 34°
2026-04-16 10:48 23.36159 116.70361 30998 ft 519 kts 34°
2026-04-16 10:48 23.41889 116.75150 30996 ft 519 kts 34°
2026-04-16 10:49 23.47192 116.80532 30998 ft 523 kts 43°
2026-04-16 10:49 23.52252 116.86235 31007 ft 524 kts 43°
2026-04-16 10:50 23.57322 116.91947 31007 ft 524 kts 43°
2026-04-16 10:50 23.62386 116.97661 31009 ft 524 kts 43°
2026-04-16 10:51 23.67452 117.03382 31015 ft 524 kts 43°
2026-04-16 10:51 23.72519 117.09105 31032 ft 524 kts 43°
2026-04-16 10:52 23.77577 117.14773 31026 ft 524 kts 41°
2026-04-16 10:52 23.82928 117.20168 31012 ft 523 kts 38°
2026-04-16 10:53 23.88442 117.25341 31017 ft 522 kts 37°
2026-04-16 10:53 23.93932 117.30556 31021 ft 523 kts 38°
2026-04-16 10:54 23.99354 117.35870 31029 ft 524 kts 39°
2026-04-16 10:54 24.04756 117.41222 31020 ft 524 kts 39°
2026-04-16 10:55 24.10179 117.46564 31017 ft 524 kts 39°
2026-04-16 10:55 24.15465 117.52077 31013 ft 527 kts 45°
2026-04-16 10:56 24.20417 117.57990 31028 ft 527 kts 45°
2026-04-16 10:56 24.25364 117.63929 31023 ft 528 kts 45°
2026-04-16 10:57 24.30311 117.69879 31012 ft 528 kts 45°
2026-04-16 10:57 24.35270 117.75830 31013 ft 528 kts 45°
2026-04-16 10:58 24.40231 117.81783 31018 ft 529 kts 45°
2026-04-16 10:58 24.45185 117.87752 31031 ft 529 kts 45°
2026-04-16 10:59 24.50146 117.93738 31025 ft 530 kts 45°
2026-04-16 10:59 24.55107 117.99730 31025 ft 531 kts 45°
2026-04-16 11:00 24.60119 118.05683 31031 ft 531 kts 43°
2026-04-16 11:00 24.65255 118.11504 31041 ft 530 kts 42°
2026-04-16 11:01 24.70418 118.17298 31042 ft 531 kts 43°
2026-04-16 11:01 24.75557 118.23128 31047 ft 531 kts 43°
2026-04-16 11:02 24.80670 118.28986 31048 ft 531 kts 43°
2026-04-16 11:02 24.85784 118.34838 31047 ft 530 kts 43°
2026-04-16 11:03 24.90908 118.40693 31053 ft 531 kts 43°
2026-04-16 11:04 24.98553 118.49446 31048 ft 531 kts 43°
2026-04-16 11:04 25.03670 118.55328 31056 ft 531 kts 43°
2026-04-16 11:05 25.08785 118.61206 31056 ft 531 kts 43°
2026-04-16 11:05 25.13852 118.67147 31062 ft 532 kts 44°
2026-04-16 11:06 25.18821 118.73203 31061 ft 532 kts 45°
2026-04-16 11:06 25.23777 118.79271 31067 ft 532 kts 45°
2026-04-16 11:07 25.28760 118.85320 31075 ft 532 kts 44°
2026-04-16 11:07 25.33761 118.91349 31071 ft 532 kts 44°
2026-04-16 11:08 25.38806 118.97335 31058 ft 532 kts 43°
2026-04-16 11:08 25.43913 119.03244 31065 ft 531 kts 43°
2026-04-16 11:09 25.49023 119.09145 31071 ft 531 kts 43°
2026-04-16 11:09 25.54108 119.15082 31087 ft 531 kts 43°
2026-04-16 11:10 25.59175 119.21030 31079 ft 531 kts 43°
2026-04-16 11:10 25.64247 119.26983 31066 ft 531 kts 43°
2026-04-16 11:11 25.69324 119.32940 31073 ft 531 kts 43°
2026-04-16 11:11 25.74961 119.38078 31084 ft 521 kts 26°
2026-04-16 11:12 25.81545 119.41124 31053 ft 510 kts 11°
2026-04-16 11:12 25.88336 119.43411 31049 ft 510 kts 11°
2026-04-16 11:13 25.95134 119.45723 31047 ft 511 kts 12°
2026-04-16 11:13 26.01934 119.48043 31093 ft 511 kts 12°
2026-04-16 11:14 26.08735 119.50360 31072 ft 511 kts 12°
2026-04-16 11:14 26.15542 119.52678 31064 ft 512 kts 12°
2026-04-16 11:15 26.22400 119.54684 31055 ft 504 kts
2026-04-16 11:15 26.29330 119.54985 31074 ft 497 kts 354°
2026-04-16 11:16 26.36248 119.55027 31073 ft 497 kts 354°
2026-04-16 11:16 26.43165 119.55071 31069 ft 497 kts 354°
2026-04-16 11:17 26.50032 119.55120 31068 ft 497 kts 354°
2026-04-16 11:17 26.56947 119.55157 31092 ft 497 kts 354°
2026-04-16 11:18 26.63861 119.55194 31082 ft 496 kts 354°
2026-04-16 11:18 26.70771 119.55229 31083 ft 497 kts 354°
2026-04-16 11:19 26.77691 119.55276 31107 ft 497 kts 354°
2026-04-16 11:19 26.84615 119.55325 31093 ft 498 kts 354°
2026-04-16 11:20 26.91543 119.55368 31087 ft 498 kts 354°
2026-04-16 11:20 26.98468 119.55412 31081 ft 498 kts 354°
2026-04-16 11:21 27.05395 119.55464 31096 ft 497 kts 354°
2026-04-16 11:21 27.12309 119.55518 31097 ft 497 kts 354°
2026-04-16 11:22 27.19220 119.55563 31095 ft 496 kts 354°
2026-04-16 11:22 27.26125 119.55597 31092 ft 496 kts 354°
2026-04-16 11:23 27.33029 119.55612 31106 ft 496 kts 355°
2026-04-16 11:23 27.39926 119.55609 31094 ft 495 kts 354°
2026-04-16 11:24 27.46821 119.55606 31082 ft 495 kts 355°
2026-04-16 11:24 27.53667 119.55646 31075 ft 495 kts 355°
2026-04-16 11:25 27.60563 119.55707 31068 ft 496 kts 355°
2026-04-16 11:25 27.67478 119.55757 31058 ft 497 kts 355°
2026-04-16 11:26 27.74406 119.55798 31060 ft 498 kts 355°
2026-04-16 11:26 27.81332 119.55831 31050 ft 498 kts 355°
2026-04-16 11:27 27.87093 119.55861 31055 ft 499 kts 355°
2026-04-16 11:27 27.94019 119.55908 31043 ft 497 kts 355°
2026-04-16 11:28 28.00932 119.55956 31031 ft 497 kts 355°
2026-04-16 11:28 28.07846 119.55999 31041 ft 498 kts 355°
2026-04-16 11:29 28.14795 119.56152 31042 ft 501 kts 357°
2026-04-16 11:29 28.21769 119.56606 31033 ft 503 kts 359°
2026-04-16 11:30 28.28754 119.57128 31024 ft 503 kts 358°
2026-04-16 11:30 28.35742 119.57578 30974 ft 505 kts 357°
2026-04-16 11:30 28.39248 119.57779 30471 ft 501 kts 357°
2026-04-16 11:31 28.42706 119.57978 30006 ft 496 kts 357°
2026-04-16 11:31 28.46142 119.58181 29470 ft 494 kts 357°
2026-04-16 11:31 28.49571 119.58384 28933 ft 493 kts 357°
2026-04-16 11:31 28.52997 119.58590 28422 ft 494 kts 357°
2026-04-16 11:32 28.56429 119.58800 27934 ft 494 kts 357°
2026-04-16 11:32 28.59862 119.59011 27546 ft 494 kts 357°
2026-04-16 11:32 28.63298 119.59223 27149 ft 495 kts 357°
2026-04-16 11:32 28.66746 119.59435 26757 ft 496 kts 357°
2026-04-16 11:33 28.70196 119.59648 26363 ft 496 kts 357°
2026-04-16 11:33 28.73645 119.59860 25982 ft 497 kts 357°
2026-04-16 11:33 28.77096 119.60073 25603 ft 497 kts 357°
2026-04-16 11:33 28.80550 119.60287 25225 ft 497 kts 357°
2026-04-16 11:34 28.84003 119.60503 24876 ft 498 kts 357°
2026-04-16 11:34 28.87466 119.60722 24505 ft 499 kts 356°
2026-04-16 11:34 28.90932 119.60939 24142 ft 499 kts 357°
2026-04-16 11:34 28.94398 119.61157 23789 ft 499 kts 357°
2026-04-16 11:35 28.97856 119.61372 23429 ft 496 kts 357°
2026-04-16 11:35 29.01245 119.61585 23010 ft 493 kts 357°
2026-04-16 11:35 29.04658 119.61797 22595 ft 489 kts 357°
2026-04-16 11:35 29.08043 119.62009 22186 ft 486 kts 357°
2026-04-16 11:36 29.11408 119.62222 21800 ft 483 kts 357°
2026-04-16 11:36 29.14752 119.62430 21401 ft 479 kts 357°
2026-04-16 11:36 29.18071 119.62629 21009 ft 476 kts 357°
2026-04-16 11:36 29.21368 119.62825 20622 ft 473 kts 357°
2026-04-16 11:37 29.24641 119.63018 20235 ft 469 kts 356°
2026-04-16 11:37 29.27890 119.63209 19857 ft 466 kts 357°
2026-04-16 11:37 29.31123 119.63402 19485 ft 463 kts 357°
2026-04-16 11:37 29.34331 119.63599 19134 ft 461 kts 358°
2026-04-16 11:38 29.37521 119.63801 18764 ft 458 kts 358°
2026-04-16 11:38 29.40692 119.64001 18417 ft 455 kts 358°
2026-04-16 11:38 29.43841 119.64196 18027 ft 452 kts 358°
2026-04-16 11:38 29.46977 119.64389 17618 ft 451 kts 358°
2026-04-16 11:39 29.50098 119.64579 17213 ft 448 kts 358°
2026-04-16 11:39 29.53204 119.64769 16805 ft 446 kts 358°
2026-04-16 11:39 29.56288 119.64950 16412 ft 442 kts 358°
2026-04-16 11:39 29.59361 119.65069 16034 ft 440 kts 357°
2026-04-16 11:40 29.62414 119.65139 15641 ft 437 kts 356°
2026-04-16 11:40 29.65449 119.65212 15254 ft 435 kts 357°
2026-04-16 11:40 29.68470 119.65333 14875 ft 433 kts 358°
2026-04-16 11:40 29.71477 119.65494 14510 ft 433 kts 359°
2026-04-16 11:41 29.74473 119.65680 14137 ft 430 kts 359°
2026-04-16 11:41 29.77450 119.65876 13771 ft 428 kts 359°
2026-04-16 11:41 29.80395 119.66086 13363 ft 418 kts 359°
2026-04-16 11:41 29.83256 119.66372 12982 ft 409 kts
2026-04-16 11:42 29.86000 119.67110 12613 ft 402 kts 15°
2026-04-16 11:42 29.88567 119.68318 12239 ft 395 kts 24°
2026-04-16 11:42 29.90973 119.69780 11869 ft 386 kts 25°
2026-04-16 11:42 29.93325 119.71208 11502 ft 378 kts 25°
2026-04-16 11:43 29.95629 119.72601 11127 ft 370 kts 25°
2026-04-16 11:43 29.97884 119.73958 10780 ft 362 kts 25°
2026-04-16 11:43 30.00096 119.75289 10432 ft 355 kts 24°
2026-04-16 11:43 30.02182 119.76775 10083 ft 352 kts 36°
2026-04-16 11:44 30.03911 119.78739 9725 ft 345 kts 49°
2026-04-16 11:44 30.05179 119.81014 9340 ft 330 kts 61°
2026-04-16 11:44 30.06205 119.83315 8961 ft 315 kts 61°
2026-04-16 11:44 30.07208 119.85548 8586 ft 312 kts 61°
2026-04-16 11:45 30.08206 119.87761 8247 ft 308 kts 61°
2026-04-16 11:45 30.09184 119.89932 8000 ft 302 kts 61°
2026-04-16 11:45 30.10141 119.92057 7760 ft 295 kts 61°
2026-04-16 11:45 30.11076 119.94132 7516 ft 288 kts 61°
2026-04-16 11:46 30.11993 119.96163 7268 ft 282 kts 60°
2026-04-16 11:46 30.12883 119.98139 7023 ft 270 kts 61°
2026-04-16 11:46 30.13726 120.00022 6785 ft 258 kts 61°
2026-04-16 11:46 30.14536 120.01836 6557 ft 252 kts 61°
2026-04-16 11:47 30.15075 120.03742 6314 ft 251 kts 88°
2026-04-16 11:47 30.14691 120.05662 6062 ft 246 kts 123°
2026-04-16 11:47 30.13514 120.07014 5817 ft 238 kts 154°
2026-04-16 11:47 30.12088 120.07966 5661 ft 238 kts 142°
2026-04-16 11:48 30.11102 120.09502 5589 ft 243 kts 112°
2026-04-16 11:48 30.10898 120.11421 5409 ft 243 kts 79°
2026-04-16 11:48 30.11496 120.13225 5142 ft 241 kts 62°
2026-04-16 11:48 30.12277 120.14939 4836 ft 242 kts 61°
2026-04-16 11:49 30.13059 120.16663 4518 ft 243 kts 62°
2026-04-16 11:49 30.13836 120.18402 4189 ft 244 kts 62°
2026-04-16 11:49 30.14615 120.20147 3863 ft 244 kts 62°
2026-04-16 11:49 30.15388 120.21880 3554 ft 241 kts 62°
2026-04-16 11:50 30.16140 120.23566 3245 ft 231 kts 63°
2026-04-16 11:50 30.16858 120.25178 2947 ft 221 kts 63°
2026-04-16 11:50 30.17546 120.26722 2662 ft 211 kts 63°
2026-04-16 11:50 30.18202 120.28195 2413 ft 200 kts 63°
2026-04-16 11:51 30.18817 120.29577 2130 ft 188 kts 63°
2026-04-16 11:51 30.19397 120.30879 1900 ft 176 kts 63°
2026-04-16 11:51 30.19937 120.32094 1669 ft 165 kts 62°
2026-04-16 11:51 30.20443 120.33231 1464 ft 152 kts 62°
2026-04-16 11:52 30.20914 120.34291 1252 ft 145 kts 62°
2026-04-16 11:52 30.21371 120.35319 1055 ft 142 kts 62°
2026-04-16 11:52 30.21814 120.36316 885 ft 140 kts 61°
2026-04-16 11:52 30.22259 120.37317 710 ft 140 kts 60°
2026-04-16 11:53 30.22703 120.38317 537 ft 140 kts 62°
2026-04-16 11:53 30.23147 120.39321 359 ft 140 kts 60°
2026-04-16 11:53 30.23590 120.40328 162 ft 142 kts 61°
2026-04-16 11:53 30.24039 120.41326 39 ft 133 kts 62°
2026-04-16 11:54 30.24403 120.42146 32 ft 91 kts 63°
2026-04-16 11:54 30.24619 120.42633 30 ft 55 kts 63°
2026-04-16 11:54 30.24714 120.42907 31 ft 29 kts 79°
2026-04-16 11:54 30.24722 120.43112 33 ft 18 kts 91°
2026-04-16 11:55 30.24699 120.43246 32 ft 16 kts 148°
2026-04-16 11:55 30.24607 120.43259 32 ft 13 kts 220°
2026-04-16 11:55 30.24564 120.43170 32 ft 12 kts 243°
2026-04-16 11:55 30.24526 120.43082 32 ft 12 kts 243°
2026-04-16 11:56 30.24480 120.42979 32 ft 17 kts 243°
2026-04-16 11:56 30.24424 120.42852 32 ft 17 kts 241°
2026-04-16 11:56 30.24378 120.42793 32 ft 6 kts 185°
2026-04-16 11:56 30.24341 120.42806 32 ft 5 kts 156°
2026-04-16 11:57 30.24313 120.42803 32 ft 4 kts 206°
2026-04-16 11:57 30.24287 120.42792 32 ft 6 kts 188°
2026-04-16 11:57 30.24231 120.42819 31 ft 12 kts 150°
2026-04-16 11:57 30.24171 120.42855 32 ft 6 kts 153°
2026-04-16 11:58 30.24149 120.42850 32 ft 2 kts 225°
2026-04-16 11:58 30.24142 120.42838 32 ft 5 kts 236°
2026-04-16 11:58 30.24124 120.42808 32 ft 2 kts 234°